[Iaude] MPEC M55: 2019 GZ184 [a=50.05,e=0.29,i=19.3,H=7.47]
    mpec at cfa.harvard.edu 
    mpec at cfa.harvard.edu
       
    Wed Jun 26 00:17:21 EDT 2024
    
    
  
M.P.E.C. 2024-M55                                 Issued 2024 June 26, 04:05 UT
     The Minor Planet Electronic Circulars contain information on unusual
         minor planets, routine data on comets and natural satellites,
         and occasional editorial announcements.  They are published
    on behalf of Division F of the International Astronomical Union by the
          Minor Planet Center, Smithsonian Astrophysical Observatory,
                          Cambridge, MA 02138, U.S.A.
			  
             Prepared using the Tamkin Foundation Computer Network
                              MPC at CFA.HARVARD.EDU
            URL https://www.minorplanetcenter.net/    ISSN 1523-6714
                                   2019 GZ184                                   
Additional Observations:
     K19GI4Z 1C2015 01 25.57347211 48 24.22 +02 47 00.1                WEM055T09
     K19GI4Z 1C2015 01 25.63698811 48 24.06 +02 47 01.7                WEM055T09
     K19GI4Z  C2015 04 14.05210811 42 53.75 +03 31 31.0          22.3 YWEM055W91
     K19GI4Z  C2015 04 14.06748611 42 53.67 +03 31 31.3          22.7 zWEM055W91
     K19GI4Z  C2015 04 14.07082111 42 53.66 +03 31 31.3          22.9 zWEM055W91
     K19GI4Z  C2015 04 14.07414811 42 53.65 +03 31 31.5                WEM055W91
     K19GI4Z &C2015 04 17.09674011 42 41.53 +03 33 04.7          23.2 rWEM055W84
     K19GI4Z &C2016 04 08.12376311 50 19.20 +03 20 48.0          22.9 rWEM055W84
     K19GI4Z &C2018 04 12.14021812 03 58.46 +03 06 35.5          23.3 VWEM055W84
     K19GI4Z &C2018 04 13.13681612 03 54.15 +03 07 07.3          23.2 VWEM055W84
     K19GI4Z 1C2018 04 22.36725512 03 16.23 +03 11 44.6                WEM055T09
     K19GI4Z &C2018 05 16.97430212 02 00.01 +03 20 49.4          23.2 rWEM055W84
     K19GI4Z 1C2019 02 05.52770112 15 26.12 +02 20 17.5                WEM055T09
     K19GI4Z 1C2019 02 05.62763012 15 25.86 +02 20 20.1                WEM055T09
     K19GI4Z &C2019 02 06.30674312 15 23.96 +02 20 39.9          23.6 gWEM055W84
Observer details:
T09 Subaru Telescope, Maunakea.  Observer .  Measurer S. Deen.  8.3-m Subaru
    Telescope + CCD.
W84 Cerro Tololo-DECam.  Observers S. Sheppard, E. Savary, A. Prakash, S.
    Gontcho A Gontcho, A. Dey, R. Blum, B. Nord.  Measurer S. Deen.  4.0-m
    reflector + CCD.
W91 VHS-VISTA, Cerro Paranal.  Observer .  Measurer S. Deen.  4.1-m f/3.26
    reflector + CCD.
Orbital elements:
2019 GZ184                                                                      
Epoch 2024 Mar. 31.0 TT = JDT 2460400.5                 Alexandersen            
M  31.86818              (2000.0)            P               Q                  
n   0.00278362     Peri.  322.84239     -0.69974523     -0.71258022             
a  50.0491341      Node   171.14691     +0.70873329     -0.70138320             
e   0.2919843      Incl.   19.29466     +0.08974258     -0.01705975             
P 354              H    7.47          G   0.15           U   5                  
Residuals in seconds of arc
150125 T09  0.0   0.2-    180422 T09  0.1-  0.1-    190404 T09  0.1+  0.2-
150125 T09  0.1+  0.1-    180516 W84  0.3-  0.0     190404 T09  0.0   0.3-
150414 W91  0.2+  0.2+    190205 T09  0.4-  0.2+    190404 T09  0.2-  0.3-
150414 W91  0.1-  0.0     190205 T09  0.1+  0.0     190404 T09  0.1-  0.3-
150414 W91  0.0   0.1-    190206 W84  0.0   0.1-    190405 T09  0.0   0.1+
150414 W91  0.0   0.0     190303 T09  0.2+  0.1+    190405 T09  0.3+  0.2+
150417 W84  0.0   0.2+    190303 T09  0.0   0.2+    190405 T09  0.1+  0.2+
160408 W84  0.1-  0.1-    190303 T09  0.2-  0.2+    190405 T09  0.2+  0.2+
180412 W84  0.0   0.1+    190303 T09  0.0   0.1-
180413 W84  0.1+  0.0     190404 T09  0.1+  0.3-
Ephemeris:
2019 GZ184               a,e,i = 50.05, 0.29, 19                 q = 35.4356
Date    TT    R. A. (2000) Decl.     Delta      r    Elong.  Phase     V
2024 05 27    12 41 06.7 +02 34 34  38.9071 39.4582   122.3     1.2    23.6
...
2024 06 11    12 40 42.9 +02 36 00  39.1424 39.4675   108.0     1.4    23.6
...
2024 06 19    12 40 38.2 +02 35 49  39.2771 39.4725   100.4     1.5    23.6
...
2024 06 25    12 40 38.4 +02 35 15  39.3803 39.4762    94.7     1.5    23.6
2024 06 26    12 40 38.8 +02 35 08  39.3976 39.4769    93.7     1.5    23.6
2024 06 27    12 40 39.2 +02 34 59  39.4149 39.4775    92.8     1.5    23.6
...
2024 07 03    12 40 43.8 +02 33 57  39.5190 39.4812    87.1     1.5    23.6
...
2024 07 11    12 40 55.0 +02 32 03  39.6570 39.4862    79.6     1.5    23.6
...
2024 07 26    12 41 31.3 +02 26 58  39.9049 39.4955    65.6     1.3    23.6
M. P. C. Staff               (C) Copyright 2024 MPC           M.P.E.C. 2024-M55
    
    
More information about the Iaude
mailing list